| time (UTC) | temp C | wind direction | speed KPH | gust KPH | rain 1hr cm | rain 24hr cm | rain mn cm | humidity % | barometer mb |
| 20260504035548 | 10 | 165 | 6.4 | 9.7 | 0.00 | 0.00 | 0.00 | 79 | 1006.1 |
| 20260504035047 | 10 | 165 | 6.4 | 9.7 | 0.00 | 0.00 | 0.00 | 78 | 1006.2 |
| 20260504034546 | 10 | 171 | 6.4 | 9.7 | 0.00 | 0.00 | 0.00 | 77 | 1006.2 |
| 20260504034050 | 11 | 168 | 6.4 | 9.7 | 0.00 | 0.00 | 0.00 | 77 | 1006.2 |
| 20260504033547 | 11 | 172 | 8.0 | 11.3 | 0.00 | 0.00 | 0.00 | 77 | 1006.2 |
| 20260504033053 | 11 | 183 | 8.0 | 11.3 | 0.00 | 0.00 | 0.00 | 77 | 1006.3 |
| 20260504032546 | 11 | 173 | 8.0 | 11.3 | 0.00 | 0.00 | 0.00 | 76 | 1006.3 |
| 20260504032046 | 11 | 178 | 8.0 | 11.3 | 0.00 | 0.00 | 0.00 | 77 | 1006.3 |
| 20260504031555 | 11 | 174 | 6.4 | 11.3 | 0.00 | 0.00 | 0.00 | 77 | 1006.3 |
| 20260504031050 | 11 | 169 | 6.4 | 9.7 | 0.00 | 0.00 | 0.00 | 76 | 1006.3 |
| 20260504030545 | 11 | 169 | 6.4 | 9.7 | 0.00 | 0.00 | 0.00 | 76 | 1006.3 |
| 20260504030049 | 11 | 169 | 6.4 | 9.7 | 0.00 | 0.00 | 0.00 | 76 | 1006.4 |
| 20260504025545 | 11 | 176 | 6.4 | 8.0 | 0.00 | 0.00 | 0.00 | 75 | 1006.5 |
| 20260504025046 | 11 | 171 | 4.8 | 8.0 | 0.00 | 0.00 | 0.00 | 75 | 1006.5 |
| 20260504024556 | 11 | 171 | 4.8 | 8.0 | 0.00 | 0.00 | 0.00 | 74 | 1006.4 |
| 20260504024045 | 11 | 171 | 6.4 | 8.0 | 0.00 | 0.00 | 0.00 | 74 | 1006.5 |
| 20260504023549 | 11 | 178 | 4.8 | 8.0 | 0.00 | 0.00 | 0.00 | 74 | 1006.5 |
| 20260504023046 | 11 | 167 | 4.8 | 8.0 | 0.00 | 0.00 | 0.00 | 74 | 1006.5 |
| 20260504022546 | 11 | 167 | 4.8 | 8.0 | 0.00 | 0.00 | 0.00 | 74 | 1006.5 |
| 20260504022044 | 11 | 167 | 4.8 | 8.0 | 0.00 | 0.00 | 0.00 | 74 | 1006.4 |
| 20260504021551 | 12 | 167 | 6.4 | 8.0 | 0.00 | 0.00 | 0.00 | 73 | 1006.4 |
| 20260504021047 | 12 | 163 | 4.8 | 6.4 | 0.00 | 0.00 | 0.00 | 73 | 1006.4 |
| 20260504020544 | 12 | 161 | 4.8 | 8.0 | 0.00 | 0.00 | 0.00 | 71 | 1006.3 |
| 20260504020048 | 12 | 167 | 4.8 | 8.0 | 0.00 | 0.00 | 0.00 | 70 | 1006.3 |
| 20260504015543 | 13 | 159 | 3.2 | 8.0 | 0.00 | 0.00 | 0.00 | 68 | 1006.3 |
| 20260504015145 | 13 | 159 | 4.8 | 9.7 | 0.00 | 0.00 | 0.00 | 66 | 1006.2 |
| 20260504014544 | 14 | 182 | 6.4 | 9.7 | 0.00 | 0.00 | 0.00 | 65 | 1006.2 |
| 20260504014043 | 14 | 198 | 6.4 | 9.7 | 0.00 | 0.00 | 0.00 | 64 | 1006.2 |
| 20260504013543 | 14 | 193 | 6.4 | 9.7 | 0.00 | 0.00 | 0.00 | 64 | 1006.1 |
| 20260504013048 | 15 | 188 | 8.0 | 9.7 | 0.00 | 0.00 | 0.00 | 63 | 1006.1 |
| 20260504012546 | 15 | 191 | 8.0 | 11.3 | 0.00 | 0.00 | 0.00 | 62 | 1006.1 |
| 20260504012044 | 15 | 192 | 6.4 | 11.3 | 0.00 | 0.00 | 0.00 | 61 | 1006.0 |
| 20260504011543 | 15 | 200 | 8.0 | 9.7 | 0.00 | 0.00 | 0.00 | 60 | 1006.0 |
| 20260504011041 | 16 | 194 | 6.4 | 12.9 | 0.00 | 0.00 | 0.00 | 58 | 1006.0 |
| 20260504010541 | 16 | 203 | 6.4 | 14.5 | 0.00 | 0.00 | 0.00 | 56 | 1006.1 |
| 20260504010042 | 17 | 212 | 9.7 | 17.7 | 0.00 | 0.00 | 0.00 | 54 | 1006.1 |
| 20260504005541 | 17 | 205 | 9.7 | 19.3 | 0.00 | 0.00 | 0.00 | 53 | 1006.1 |
| 20260504005042 | 17 | 219 | 11.3 | 19.3 | 0.00 | 0.00 | 0.00 | 53 | 1006.0 |
| 20260504004551 | 17 | 209 | 11.3 | 19.3 | 0.00 | 0.00 | 0.00 | 51 | 1006.0 |
| 20260504004041 | 18 | 225 | 11.3 | 20.9 | 0.00 | 0.00 | 0.00 | 51 | 1006.1 |
| 20260504003541 | 18 | 210 | 16.1 | 24.1 | 0.00 | 0.00 | 0.00 | 49 | 1006.1 |
| 20260504003038 | 18 | 212 | 14.5 | 24.1 | 0.00 | 0.00 | 0.00 | 50 | 1006.1 |
| 20260504002538 | 18 | 228 | 14.5 | 25.7 | 0.00 | 0.00 | 0.00 | 49 | 1006.2 |
| 20260504002042 | 18 | 257 | 17.7 | 25.7 | 0.00 | 0.00 | 0.00 | 48 | 1006.2 |
| 20260504001540 | 18 | 207 | 14.5 | 25.7 | 0.00 | 0.00 | 0.00 | 47 | 1006.2 |
| 20260504001038 | 18 | 223 | 14.5 | 27.4 | 0.00 | 0.00 | 0.00 | 47 | 1006.2 |
| 20260504000537 | 19 | 236 | 14.5 | 22.5 | 0.00 | 0.00 | 0.00 | 48 | 1006.2 |
| 20260504000037 | 19 | 234 | 14.5 | 27.4 | 0.00 | 0.00 | 0.00 | 46 | 1006.2 |
| 20260503235537 | 19 | 225 | 14.5 | 27.4 | 0.00 | 0.00 | 0.00 | 46 | 1006.2 |
| 20260503235041 | 19 | 226 | 14.5 | 22.5 | 0.00 | 0.00 | 0.00 | 48 | 1006.2 |
| 20260503234538 | 19 | 242 | 14.5 | 22.5 | 0.00 | 0.00 | 0.00 | 47 | 1006.2 |
| 20260503234037 | 20 | 225 | 12.9 | 27.4 | 0.00 | 0.00 | 0.00 | 47 | 1006.2 |
| 20260503233537 | 19 | 238 | 16.1 | 27.4 | 0.00 | 0.00 | 0.00 | 46 | 1006.2 |
| 20260503233036 | 19 | 206 | 14.5 | 33.8 | 0.00 | 0.00 | 0.00 | 46 | 1006.3 |
| 20260503232536 | 20 | 263 | 20.9 | 35.4 | 0.00 | 0.00 | 0.00 | 45 | 1006.3 |
| 20260503232035 | 20 | 227 | 19.3 | 38.6 | 0.00 | 0.00 | 0.00 | 46 | 1006.4 |
| 20260503231534 | 20 | 229 | 22.5 | 38.6 | 0.00 | 0.00 | 0.00 | 45 | 1006.4 |
| 20260503231033 | 20 | 257 | 25.7 | 37.0 | 0.00 | 0.00 | 0.00 | 46 | 1006.5 |
| 20260503230531 | 19 | 221 | 20.9 | 32.2 | 0.00 | 0.00 | 0.00 | 46 | 1006.5 |
| 20260503230032 | 18 | 211 | 20.9 | 30.6 | 0.00 | 0.00 | 0.00 | 47 | 1006.5 |
| 20260503225531 | 18 | 195 | 24.1 | 33.8 | 0.00 | 0.00 | 0.00 | 46 | 1006.7 |
| 20260503225030 | 18 | 209 | 20.9 | 30.6 | 0.00 | 0.00 | 0.00 | 47 | 1006.7 |
| 20260503224531 | 19 | 200 | 20.9 | 33.8 | 0.00 | 0.00 | 0.00 | 46 | 1006.7 |
| 20260503224030 | 18 | 221 | 22.5 | 35.4 | 0.00 | 0.00 | 0.00 | 46 | 1006.7 |
| 20260503223531 | 18 | 202 | 20.9 | 35.4 | 0.00 | 0.00 | 0.00 | 47 | 1006.8 |
| 20260503223030 | 18 | 215 | 22.5 | 37.0 | 0.00 | 0.00 | 0.00 | 47 | 1006.8 |
| 20260503222529 | 18 | 211 | 24.1 | 38.6 | 0.00 | 0.00 | 0.00 | 47 | 1006.8 |
| 20260503222028 | 19 | 200 | 29.0 | 40.2 | 0.00 | 0.00 | 0.00 | 46 | 1006.8 |
| 20260503221528 | 18 | 208 | 27.4 | 40.2 | 0.00 | 0.00 | 0.00 | 47 | 1006.9 |
| 20260503221031 | 18 | 197 | 29.0 | 40.2 | 0.00 | 0.00 | 0.00 | 47 | 1006.9 |
| 20260503220528 | 18 | 215 | 27.4 | 40.2 | 0.00 | 0.00 | 0.00 | 47 | 1006.8 |
| 20260503220033 | 18 | 206 | 22.5 | 37.0 | 0.00 | 0.00 | 0.00 | 47 | 1007.0 |
| 20260503215527 | 18 | 197 | 25.7 | 40.2 | 0.00 | 0.00 | 0.00 | 47 | 1007.0 |
| 20260503215026 | 18 | 210 | 29.0 | 45.1 | 0.00 | 0.00 | 0.00 | 46 | 1007.0 |
| 20260503214526 | 18 | 206 | 27.4 | 45.1 | 0.00 | 0.00 | 0.00 | 46 | 1007.0 |
| 20260503214026 | 18 | 203 | 30.6 | 40.2 | 0.00 | 0.00 | 0.00 | 46 | 1007.0 |
| 20260503213526 | 18 | 169 | 29.0 | 40.2 | 0.00 | 0.00 | 0.00 | 46 | 1007.1 |
| 20260503213028 | 18 | 198 | 24.1 | 41.8 | 0.00 | 0.00 | 0.00 | 48 | 1007.1 |
| 20260503212525 | 18 | 190 | 24.1 | 41.8 | 0.00 | 0.00 | 0.00 | 48 | 1007.2 |
| 20260503212023 | 18 | 184 | 29.0 | 46.7 | 0.00 | 0.00 | 0.00 | 47 | 1007.2 |
| 20260503211534 | 18 | 198 | 30.6 | 46.7 | 0.00 | 0.00 | 0.00 | 46 | 1007.4 |
| 20260503211022 | 18 | 177 | 24.1 | 40.2 | 0.00 | 0.00 | 0.00 | 47 | 1007.6 |
| 20260503210522 | 18 | 210 | 22.5 | 43.5 | 0.00 | 0.00 | 0.00 | 46 | 1007.7 |
| 20260503210022 | 18 | 199 | 27.4 | 43.5 | 0.00 | 0.00 | 0.00 | 46 | 1007.8 |
| 20260503205529 | 18 | 192 | 25.7 | 45.1 | 0.00 | 0.00 | 0.00 | 46 | 1007.8 |
| 20260503205021 | 18 | 201 | 30.6 | 45.1 | 0.00 | 0.00 | 0.00 | 44 | 1007.9 |
| 20260503204520 | 19 | 198 | 33.8 | 45.1 | 0.00 | 0.00 | 0.00 | 43 | 1007.9 |
| 20260503204019 | 19 | 198 | 29.0 | 46.7 | 0.00 | 0.00 | 0.00 | 43 | 1008.0 |
| 20260503203519 | 18 | 157 | 32.2 | 46.7 | 0.00 | 0.00 | 0.00 | 45 | 1008.0 |
| 20260503203021 | 18 | 215 | 35.4 | 48.3 | 0.00 | 0.00 | 0.00 | 44 | 1008.1 |
| 20260503202520 | 19 | 195 | 29.0 | 48.3 | 0.00 | 0.00 | 0.00 | 44 | 1008.2 |
| 20260503202018 | 18 | 200 | 32.2 | 53.1 | 0.00 | 0.00 | 0.00 | 43 | 1008.2 |
| 20260503201516 | 18 | 199 | 33.8 | 53.1 | 0.00 | 0.00 | 0.00 | 43 | 1008.3 |
| 20260503201017 | 18 | 171 | 33.8 | 49.9 | 0.00 | 0.00 | 0.00 | 45 | 1008.4 |
| 20260503200516 | 18 | 193 | 32.2 | 49.9 | 0.00 | 0.00 | 0.00 | 44 | 1008.5 |
| 20260503200015 | 18 | 187 | 32.2 | 45.1 | 0.00 | 0.00 | 0.00 | 42 | 1008.6 |
| 20260503195517 | 18 | 198 | 32.2 | 45.1 | 0.00 | 0.00 | 0.00 | 43 | 1008.8 |
| 20260503195014 | 18 | 182 | 29.0 | 53.1 | 0.00 | 0.00 | 0.00 | 45 | 1008.7 |
| 20260503194514 | 17 | 203 | 35.4 | 53.1 | 0.00 | 0.00 | 0.00 | 44 | 1008.9 |
| 20260503194014 | 18 | 163 | 37.0 | 49.9 | 0.00 | 0.00 | 0.00 | 45 | 1008.8 |
| 20260503193513 | 18 | 196 | 32.2 | 49.9 | 0.00 | 0.00 | 0.00 | 44 | 1008.9 |
| 20260503193030 | 17 | 179 | 37.0 | 53.1 | 0.00 | 0.00 | 0.00 | 44 | 1008.9 |
| 20260503192511 | 17 | 166 | 30.6 | 53.1 | 0.00 | 0.00 | 0.00 | 45 | 1009.1 |
| 20260503192010 | 18 | 220 | 30.6 | 51.5 | 0.00 | 0.00 | 0.00 | 44 | 1009.1 |
| 20260503191512 | 18 | 213 | 33.8 | 51.5 | 0.00 | 0.00 | 0.00 | 43 | 1009.3 |
| 20260503191009 | 17 | 183 | 32.2 | 49.9 | 0.00 | 0.00 | 0.00 | 45 | 1009.2 |
| 20260503190508 | 17 | 200 | 35.4 | 49.9 | 0.00 | 0.00 | 0.00 | 45 | 1009.5 |
| 20260503190018 | 17 | 178 | 35.4 | 49.9 | 0.00 | 0.00 | 0.00 | 46 | 1009.5 |
| 20260503185506 | 17 | 198 | 30.6 | 48.3 | 0.00 | 0.00 | 0.00 | 47 | 1009.7 |
| 20260503185006 | 17 | 200 | 32.2 | 43.5 | 0.00 | 0.00 | 0.00 | 46 | 1009.8 |
| 20260503184505 | 17 | 181 | 32.2 | 43.5 | 0.00 | 0.00 | 0.00 | 46 | 1009.8 |
| 20260503184003 | 17 | 195 | 27.4 | 46.7 | 0.00 | 0.00 | 0.00 | 49 | 1010.0 |
| 20260503183502 | 16 | 178 | 27.4 | 46.7 | 0.00 | 0.00 | 0.00 | 49 | 1010.2 |
| 20260503183001 | 16 | 177 | 27.4 | 45.1 | 0.00 | 0.00 | 0.00 | 51 | 1010.2 |
| 20260503182603 | 16 | 180 | 29.0 | 40.2 | 0.00 | 0.00 | 0.00 | 52 | 1010.3 |
| 20260503182059 | 16 | 190 | 30.6 | 40.2 | 0.00 | 0.00 | 0.00 | 51 | 1010.3 |
| 20260503181602 | 16 | 186 | 25.7 | 38.6 | 0.00 | 0.00 | 0.00 | 54 | 1010.6 |
| 20260503181056 | 15 | 185 | 25.7 | 38.6 | 0.00 | 0.00 | 0.00 | 55 | 1010.7 |
| 20260503180555 | 15 | 170 | 29.0 | 38.6 | 0.00 | 0.00 | 0.00 | 53 | 1010.9 |
| 20260503180054 | 15 | 192 | 25.7 | 37.0 | 0.00 | 0.00 | 0.00 | 54 | 1011.1 |
| 20260503175553 | 15 | 199 | 20.9 | 38.6 | 0.00 | 0.00 | 0.00 | 56 | 1011.3 |
| 20260503175051 | 15 | 171 | 17.7 | 32.2 | 0.00 | 0.00 | 0.00 | 58 | 1011.5 |
| 20260503174605 | 15 | 182 | 17.7 | 30.6 | 0.00 | 0.00 | 0.00 | 57 | 1011.8 |
| 20260503174050 | 15 | 165 | 20.9 | 29.0 | 0.00 | 0.00 | 0.00 | 60 | 1011.8 |
| 20260503173549 | 15 | 184 | 20.9 | 25.7 | 0.00 | 0.00 | 0.00 | 61 | 1012.1 |
| 20260503173049 | 13 | 185 | 14.5 | 27.4 | 0.00 | 0.00 | 0.00 | 63 | 1012.3 |
| 20260503172547 | 13 | 172 | 14.5 | 27.4 | 0.00 | 0.00 | 0.00 | 65 | 1012.6 |
| 20260503172045 | 13 | 188 | 16.1 | 22.5 | 0.00 | 0.00 | 0.00 | 62 | 1012.8 |
| 20260503171543 | 13 | 201 | 14.5 | 27.4 | 0.00 | 0.00 | 0.00 | 62 | 1012.9 |
| 20260503171042 | 13 | 198 | 11.3 | 30.6 | 0.00 | 0.00 | 0.00 | 63 | 1013.1 |
| 20260503170541 | 13 | 196 | 19.3 | 30.6 | 0.00 | 0.00 | 0.00 | 60 | 1013.0 |
| 20260503150531 | 12 | 196 | 14.5 | 27.4 | 0.00 | 0.00 | 0.00 | 62 | 1014.4 |
| 20260503131017 | 11 | 193 | 22.5 | 35.4 | 0.00 | 0.00 | 0.00 | 62 | 1014.7 |
| 20260503130516 | 11 | 207 | 19.3 | 30.6 | 0.00 | 0.00 | 0.00 | 64 | 1014.8 |
| 20260503110555 | 7 | 192 | 11.3 | 19.3 | 0.00 | 0.00 | 0.00 | 69 | 1014.7 |
| 20260503100105 | 6 | 203 | 11.3 | 16.1 | 0.00 | 0.00 | 0.00 | 69 | 1015.0 |
| 20260503081548 | 5 | 196 | 6.4 | 9.7 | 0.00 | 0.00 | 0.00 | 72 | 1015.2 |
| 20260503081042 | 5 | 197 | 4.8 | 9.7 | 0.00 | 0.00 | 0.00 | 72 | 1015.2 |
| 20260503080542 | 5 | 203 | 6.4 | 9.7 | 0.00 | 0.00 | 0.00 | 72 | 1015.2 |
| 20260503072537 | 5 | 175 | 4.8 | 8.0 | 0.00 | 0.00 | 0.00 | 76 | 1015.2 |
| 20260503072039 | 5 | 178 | 4.8 | 8.0 | 0.00 | 0.00 | 0.00 | 76 | 1015.3 |
| 20260503071541 | 5 | 178 | 4.8 | 6.4 | 0.00 | 0.00 | 0.00 | 77 | 1015.4 |
| 20260503071034 | 5 | 178 | 4.8 | 6.4 | 0.00 | 0.00 | 0.00 | 76 | 1015.5 |
| 20260503070533 | 5 | 178 | 4.8 | 6.4 | 0.00 | 0.00 | 0.00 | 75 | 1015.4 |
| 20260503055022 | 6 | 193 | 8.0 | 12.9 | 0.00 | 0.00 | 0.00 | 67 | 1016.1 |
| 20260503054530 | 6 | 207 | 9.7 | 11.3 | 0.00 | 0.00 | 0.00 | 67 | 1016.2 |
| 20260503054025 | 6 | 195 | 8.0 | 11.3 | 0.00 | 0.00 | 0.00 | 68 | 1016.2 |
| 20260503053521 | 6 | 194 | 6.4 | 11.3 | 0.00 | 0.00 | 0.00 | 68 | 1016.2 |
| 20260503053022 | 6 | 198 | 8.0 | 11.3 | 0.00 | 0.00 | 0.00 | 68 | 1016.2 |
| 20260503052520 | 6 | 194 | 8.0 | 11.3 | 0.00 | 0.00 | 0.00 | 69 | 1016.3 |
| 20260503052026 | 6 | 199 | 8.0 | 9.7 | 0.00 | 0.00 | 0.00 | 69 | 1016.3 |
| 20260503051518 | 6 | 195 | 6.4 | 9.7 | 0.00 | 0.00 | 0.00 | 70 | 1016.3 |
| 20260503051016 | 6 | 187 | 4.8 | 8.0 | 0.00 | 0.00 | 0.00 | 71 | 1016.4 |
| 20260503050516 | 6 | 187 | 4.8 | 9.7 | 0.00 | 0.00 | 0.00 | 70 | 1016.4 |
| 20260503050015 | 6 | 190 | 6.4 | 9.7 | 0.00 | 0.00 | 0.00 | 68 | 1016.4 |
| 20260503045517 | 6 | 190 | 8.0 | 11.3 | 0.00 | 0.00 | 0.00 | 67 | 1016.5 |
| 20260503045015 | 6 | 198 | 8.0 | 11.3 | 0.00 | 0.00 | 0.00 | 67 | 1016.4 |
| 20260503044515 | 6 | 183 | 8.0 | 11.3 | 0.00 | 0.00 | 0.00 | 67 | 1016.4 |
| 20260503044013 | 6 | 194 | 8.0 | 11.3 | 0.00 | 0.00 | 0.00 | 68 | 1016.4 |
| 20260503043515 | 6 | 198 | 6.4 | 9.7 | 0.00 | 0.00 | 0.00 | 69 | 1016.5 |
| 20260503043013 | 6 | 190 | 6.4 | 9.7 | 0.00 | 0.00 | 0.00 | 71 | 1016.5 |
| 20260503042514 | 6 | 163 | 4.8 | 8.0 | 0.00 | 0.00 | 0.00 | 73 | 1016.5 |
| 20260503042013 | 5 | 163 | 4.8 | 6.4 | 0.00 | 0.00 | 0.00 | 73 | 1016.4 |
| 20260503041513 | 5 | 163 | 4.8 | 6.4 | 0.00 | 0.00 | 0.00 | 73 | 1016.5 |
| 20260503041012 | 5 | 163 | 3.2 | 6.4 | 0.00 | 0.00 | 0.00 | 75 | 1016.5 |
| 20260503040516 | 5 | 163 | 4.8 | 6.4 | 0.00 | 0.00 | 0.00 | 75 | 1016.5 |
| 20260503040012 | 5 | 163 | 4.8 | 6.4 | 0.00 | 0.00 | 0.00 | 78 | 1016.6 |